Regional Weather Roundup
Issued by NWS

Home | Current Version | Previous Version | Graphics & Text | Print | Product List | Glossary On
Versions: 1 2 3 4 5 6 7 8 9 10 11 12 13 14 15 16 17 18 19 20 21 22 23 24 25 26 27 28 29 30 31 32 33 34 35 36 37 38 39 40 41 42 43 44 45 46 47 48 49 50
940
ASUS43 KLMK 210702
RWRKY
KENTUCKY REGIONAL WEATHER ROUNDUP
NATIONAL WEATHER SERVICE LOUISVILLE KY
200 AM EST TUE NOV 21 2017

NOTE "FAIR" INDICATES FEW OR NO CLOUDS BELOW 12,000 FEET
WITH NO SIGNIFICANT WEATHER AND/OR OBSTRUCTIONS TO VISIBILITY.

KYZ001>023-026-027-061>063-070>075-210800-
WESTERN AND SOUTH CENTRAL KENTUCKY

CITY           SKY/WX    TMP DP  RH WIND       PRES   REMARKS
PADUCAH        CLEAR     41  25  53 SW7       30.00R
HENDERSON      CLEAR     39  27  62 S8        29.99S WCI  33
OWENSBORO      CLEAR     36  26  67 S9        30.00S WCI  29
HOPKINSVILLE   CLEAR     40  23  51 S7        30.02F WCI  35
BOWLING GREEN  CLEAR     32  27  81 CALM      30.04F
GLASGOW        NOT AVBL
$$

KYZ024-025-028>034-038-045-046-053-210800-
NORTH CENTRAL KENTUCKY

CITY           SKY/WX    TMP DP  RH WIND       PRES   REMARKS
LOUISVILLE/SDF PTCLDY    45  23  42 SW8       30.00S
LOUISVILLE/LOU CLEAR     38  24  57 S8        30.01S WCI  32
FORT KNOX      CLEAR     35  22  59 S5        29.99S WCI  31
$$

KYZ035>037-039>044-047>052-055>060-089>105-210800-
NORTHEAST KENTUCKY

CITY           SKY/WX    TMP DP  RH WIND       PRES   REMARKS
LEXINGTON      CLOUDY    39  24  55 S13       30.01F WCI  31
COVINGTON      PTCLDY    36  25  64 S9        29.96F WCI  29
FRANKFORT      CLEAR     37  23  56 S8        30.00F WCI  31
$$

KYZ054-064>069-076>088-106>120-210800-
SOUTHEAST KENTUCKY

CITY           SKY/WX    TMP DP  RH WIND       PRES   REMARKS
JACKSON        CLEAR     42  19  39 VRB5      30.05F
LONDON         CLOUDY    31  24  75 CALM      30.07F
SOMERSET       CLOUDY    37  28  70 S5        30.09S WCI  34
MIDDLESBORO    CLOUDY    29  27  94 CALM      30.12S
MONTICELLO     SUNNY     46  31  55 S9G26     30.08F
$$





USA.gov is the U.S. government's official web portal to all federal, state and local government web resources and services.